Location: Unspecified
(0.0000°N, 0.0000°E)
Time: 09:06:53
(UTC+00:00)

SR - Visible Passes

Search period start: 03 April 2020 00:00
Search period end: 13 April 2020 00:00
Orbit: 578 x 878 km, 66.7° (Epoch: 02 April)

Date Brightness Start Highest point End Pass type
(mag) Time Alt. Az. Time Alt. Az. Time Alt. Az.
03 Apr ? 04:14:40 40° NNW 04:14:40 40° NNW 04:18:37 10° N visible
04 Apr ? 03:27:31 19° NNE 03:27:31 19° NNE 03:29:06 10° NNE visible
05 Apr ? 04:19:40 12° NNW 04:19:40 12° NNW 04:20:14 10° NNW visible
